Regional Weather Roundup
Issued by NWS

Home | Current Version | Previous Version | Text Only | Print | Product List | Glossary Off
Versions: 1 2 3 4 5 6 7 8 9 10 11 12 13 14 15 16 17 18 19 20 21 22 23 24 25 26 27 28 29 30 31 32 33 34 35 36 37 38 39 40 41 42 43 44 45 46 47 48 49 50

000
ASUS43 KTOP 220408
RWRKS

WEATHER ROUNDUP FOR KANSAS
NATIONAL WEATHER SERVICE GOODLAND KS
1100 PM CDT THU SEP 21 2017

NOTE:  "FAIR" INDICATES FEW OR NO CLOUDS BELOW 12,000 FEET WITH NO
SIGNIFICANT WEATHER AND/OR OBSTRUCTIONS TO VISIBILITY.

KSZ001>006-013>018-027>032-041>047-220500-
NORTHWEST KANSAS

CITY           SKY/WX    TMP DP  RH WIND       PRES   REMARKS
GOODLAND       CLEAR     73  40  30 S15       29.70R
HAYS           CLEAR     84  68  58 S21G30    29.74R
HILL CITY      CLEAR     86  67  52 S24G38    29.71R
RUSSELL        CLEAR     84  67  56 S24G33    29.75R
$$

KSZ061>065-074>080-084>089-220500-
SOUTHWEST KANSAS

CITY           SKY/WX    TMP DP  RH WIND       PRES   REMARKS
DODGE CITY     CLEAR     82  67  60 S28G41    29.79R
ELKHART          N/A     70  47  44 S12         N/A
GARDEN CITY    CLEAR     79  62  56 S18G25    29.77R
GREAT BEND     CLEAR     84  69  60 S31G41    29.78R
LIBERAL        CLEAR     78  57  48 S16       29.80R
PRATT          CLEAR     82  67  60 S21G28    29.82R
$$

KSZ066>073-081>083-090>101-220500-
SOUTHEAST KANSAS

CITY           SKY/WX    TMP DP  RH WIND       PRES   REMARKS
CHANUTE        CLEAR     79  71  76 S13       29.91R
COFFEYVILLE    CLEAR     78  71  79 SE9       29.90S
HUTCHINSON     CLEAR     83  72  69 S17G26    29.83R
MEDICINE LODGE   N/A     82  68  62 S12       29.82R
NEWTON         CLEAR     81  70  69 S21G28    29.86R
WICHITA INTL   CLEAR     82  72  71 S16       29.85R
WICHITA JABRA  CLEAR     82  71  69 S18G26    29.86R
WICHITA MCCONL CLEAR     82  69  64 S20       29.86R
WINFIELD       CLEAR     82  71  69 S16G28    29.88R
$$

KSZ007>012-019>026-033>040-048>060-102>105-220500-
NORTHEAST KANSAS

CITY           SKY/WX    TMP DP  RH WIND       PRES   REMARKS
CONCORDIA      PTCLDY    82  72  71 S18G26    29.78R
EMPORIA        CLEAR     80  70  71 S20G28    29.87R
LAWRENCE       PTCLDY    82  72  71 SE14G24   29.87R
MANHATTAN      CLEAR     84  71  65 S17G28    29.81R
MARYSVILLE     CLEAR     82  72  69 S14G24    29.82R
OLATHE IND     CLEAR     79  72  79 S14       29.90S
OLATHE EXE     CLEAR     78  72  81 S13       29.91R
SALINA         CLEAR     86  71  60 S24G32    29.79R
TOPEKA BILLARD CLEAR     82  73  74 S15       29.85R
TOPEKA FORBES  CLEAR     81  73  76 S13       29.87R
$$



USA.gov is the U.S. government's official web portal to all federal, state and local government web resources and services.